Tracking 28790 objects as of 19-Apr-2024
HD Live streaming from Space Station
objects crossing your sky now

TITAN 3C TRANSTAGE DEB

Track TITAN 3C TRANSTAGE DEB now!


NORAD ID: 26050
Int'l Code: 1965-108AJ
Perigee: 979.6 km
Apogee: 29,871.6 km
Inclination: 26.1 °
Period: 533.8 minutes
Semi major axis: 21796 km
RCS: 0.1424 m2 (medium)
Launch date: December 21, 1965
Source: United States (US)
Launch site: AIR FORCE EASTERN TEST RANGE (AFETR)

Note: This is SATELLITE DEBRIS
Your satellite tracking list
Your tracking list is empty




NASA's NSSDC Master Catalog

Two Line Element Set (TLE):
1 26050U 65108AJ  24109.37953770 -.00000192  00000-0 -16927-1 0  9990
2 26050  26.0562 173.9577 6627633 117.1340 323.4969  2.69786610244893
Source of the keplerian elements: AFSPC